Regional Weather Roundup
Issued by NWS

Home | Current Version | Previous Version | Text Only | Print | Product List | Glossary Off
Versions: 1 2 3 4 5 6 7 8 9 10 11 12 13 14 15 16 17 18 19 20 21 22 23 24 25 26 27 28 29 30 31 32 33 34 35 36 37 38 39 40 41 42 43 44 45 46 47 48 49 50

000
ASUS43 KLOT 042002
RWRIL

ILLINOIS REGIONAL WEATHER ROUNDUP
NATIONAL WEATHER SERVICE CHICAGO/ROMEOVILLE IL
300 PM CDT MON MAY 04 2015

NOTE: "FAIR" INDICATES FEW OR NO CLOUDS BELOW 12,000 FEET WITH NO
SIGNIFICANT WEATHER AND/OR OBSTRUCTIONS TO VISIBILITY.

* THESE STATIONS ARE NOT UNDER NWS QUALITY CONTROL. THEY ALSO MAY NOT
  REPORT WEATHER SUCH AS PRECIPITATION OR FOG.

ILZ001-002-007-009-015-016-024-042100-
NORTHWEST ILLINOIS

CITY           SKY/WX    TMP DP  RH WIND       PRES   REMARKS
MOLINE         CLOUDY    76  61  59 NE8       30.08F
STERLING*      PTSUNNY   73  63  68 E7        30.12F
$$

ILZ003-004-008-010-011-017-018-042100-
NORTH CENTRAL ILLINOIS

CITY           SKY/WX    TMP DP  RH WIND       PRES   REMARKS
ROCKFORD       PTSUNNY   73  56  54 CALM      30.13F
$$

ILZ005-006-012>014-019>023-042100-
NORTHEAST ILLINOIS

CITY           SKY/WX    TMP DP  RH WIND       PRES   REMARKS
CHICAGO-OHARE  CLOUDY    72  56  57 E13       30.12R
CHICAGO-MIDWAY CLOUDY    70  57  63 E14       30.13R
AURORA         CLOUDY    68  58  70 NW5       30.13S
WAUKEGAN       PTSUNNY   64  54  69 NE10      30.14R
DUPAGE AIRPORT PTSUNNY   70  59  68 SW3       30.12S
WHEELING       CLOUDY    69  56  62 NE9       30.14R
NORTHERLY ISL    N/A     59  53  80 N5          N/A
$$

LMZ740>746-042100-
SOUTHERN LAKE MICHIGAN

STATION/POSITION SKY/WX   TEMP    WIND        PRES    VSBY  WAVE
                          AIR SEA DIR/SP/G                  HT/PER
                          (F)     (DEG/KT/KT) (MB)    (MI)  (FT/S)
HARRISON CRIB              59      80/ 14/ 15   N/A
BURNHAM HARBOR             59      30/  6/  8   N/A
CALUMET HARBOR             60      20/  5/  9   N/A
BURNS HARBOR               63      40/  4/  6 1020.7R
MICHIGAN CITY              55     360/  9/ 12   N/A
MICHIGAN CITY 6N           53 50  360/  8/ 10   N/A           0
ST. JOSEPH                 51 49  300/  4/  4   N/A           1/ 3
$$

ILZ025>027-034>036-040-047-049-050-058-095>099-042100-
WEST-CENTRAL ILLINOIS

CITY           SKY/WX    TMP DP  RH WIND       PRES   REMARKS
QUINCY         MOSUNNY   80  59  48 S8        30.05F HX  81
$$

ILZ028>032-037-038-041>044-048-051>054-059>061-042100-
CENTRAL ILLINOIS

CITY           SKY/WX    TMP DP  RH WIND       PRES   REMARKS
DECATUR        CLOUDY    79  55  43 SW15      30.11F
PEORIA         PTSUNNY   75  61  61 CALM      30.11S
SPRINGFIELD    CLOUDY    83  55  38 SW10G17   30.09F HX  82
TAYLORVILLE    NOT AVBL
$$

ILZ033-039-045-046-055>057-062-063-042100-
EAST-CENTRAL ILLINOIS

CITY           SKY/WX    TMP DP  RH WIND       PRES   REMARKS
CHAMPAIGN      CLOUDY    82  56  40 SW17G24   30.11S HX  82
MATTOON        PTSUNNY   78  57  48 SW12G17   30.12F
$$

ILZ079-100>102-042100-
SOUTHWEST ILLINOIS

CITY           SKY/WX    TMP DP  RH WIND       PRES   REMARKS
BELLEVILLE     FAIR      84  57  39 VRB2      30.08F HX  84
CAHOKIA*       MOSUNNY   85  56  37 S8        30.08F HX  84
$$

ILZ064>066-069>071-074>076-080>082-084>086-088>090-092>094-042100-
SOUTH-CENTRAL ILLINOIS

CITY           SKY/WX    TMP DP  RH WIND       PRES   REMARKS
CARBONDALE     MOSUNNY   83  56  39 S16       30.12F HX  82
MARION         PTSUNNY   82  59  44 S16       30.14F HX  82
MT. VERNON     PTSUNNY  N/A N/A N/A S15       30.14S
$$

ILZ067-068-072-073-078-083-087-091-042100-
SOUTHEAST ILLINOIS

CITY           SKY/WX    TMP DP  RH WIND       PRES   REMARKS
LAWRENCEVILLE  PTSUNNY   83  57  41 SW16      30.13F HX  82
$$

ABBREVIATIONS USED IN REMARKS
   TC - TEMPERATURE IN CELSIUS
  WCI - WIND CHILL INDEX
   HX - HEAT INDEX
  VSB - VISIBILITY
$$



USA.gov is the U.S. government's official web portal to all federal, state and local government web resources and services.